Wind_Speed
35 34 33 31 30 28 26 24 23 22 21 19 17 14 13 11 10 9 9 9 9 10 11 11 11 11 11 10 10 10 11 12 13 14 15 15 14 12 11 9 11 11 9 8 9
37 36 35 34 32 31 29 28 26 25 23 21 19 17 15 13 11 10 10 10 11 12 12 12 12 12 12 13 13 14 15 15 16 15 18 17 16 12 12 10 13 13 13 10 10
39 38 38 36 35 34 33 31 30 28 26 24 22 20 18 16 14 12 12 12 13 13 13 14 14 15 15 16 18 18 19 18 17 17 19 16 17 14 13 13 12 15 15 14 13
41 40 40 39 38 37 36 35 33 31 29 27 25 24 22 20 18 16 15 14 14 15 16 17 17 18 18 19 21 21 20 20 20 20 20 17 17 17 16 14 16 15 17 17 18
42 42 42 42 41 40 39 37 35 33 31 30 28 27 26 24 22 21 19 17 17 17 16 17 17 18 19 19 21 21 21 24 24 24 23 20 19 18 18 19 18 18 18 19 20
45 45 45 44 43 42 41 40 38 36 34 33 32 30 29 28 26 24 23 22 21 20 19 19 20 21 21 23 24 24 26 27 27 27 25 23 21 18 22 22 20 20 20 19 20
48 48 48 47 46 45 44 43 41 39 38 37 35 34 33 31 30 28 27 26 26 25 23 23 23 24 24 27 28 27 28 28 27 28 27 28 24 21 23 23 23 22 22 21 20
52 51 50 50 50 48 47 46 44 43 42 41 40 38 35 34 33 32 31 31 30 29 28 28 28 27 28 28 28 29 30 32 29 30 31 32 25 28 25 24 24 24 23 23 22
56 55 54 52 52 51 50 49 48 47 46 45 43 42 40 37 36 35 35 34 34 33 33 32 32 31 31 30 31 30 33 33 34 31 30 33 31 29 28 28 26 25 24 24 25
59 58 57 56 54 53 53 52 51 50 49 48 47 45 44 39 40 40 39 38 38 37 37 35 36 35 31 32 32 36 36 34 35 34 33 34 32 32 30 30 27 26 25 26 26
62 61 60 59 58 58 56 55 54 55 53 50 50 49 48 45 44 43 43 42 42 41 40 40 41 35 33 36 36 39 39 38 32 38 36 35 35 36 32 32 29 29 29 28 29
66 63 64 62 61 60 59 58 58 59 58 55 54 52 51 49 48 46 46 46 45 44 45 43 41 36 38 38 40 40 39 34 34 38 36 35 36 35 36 30 33 34 32 32 31
68 71 66 63 65 62 62 61 61 62 64 59 57 57 55 53 52 50 50 50 49 48 45 45 42 41 40 41 41 36 37 34 36 39 39 38 41 36 37 37 34 32 36 35 33
47 70 71 72 66 62 59 62 62 63 65 64 60 59 59 57 58 55 53 53 53 49 45 49 43 45 40 39 37 38 36 38 37 40 42 42 50 38 36 38 38 35 38 39 37
48 42 63 72 66 70 65 64 65 65 67 67 67 67 62 60 59 59 57 56 54 48 48 49 46 45 43 37 39 39 38 40 39 41 47 44 52 45 38 37 36 34 40 42 39
53 49 44 47 56 68 69 65 66 69 70 72 69 65 65 63 62 63 62 57 54 53 51 49 47 43 40 38 38 40 39 42 45 46 52 45 46 52 43 40 38 37 39 41 41
62 54 54 51 46 49 61 66 61 70 62 62 64 63 64 61 60 60 60 59 58 54 54 47 46 49 47 45 42 42 42 45 50 52 54 49 50 44 46 42 38 37 37 37 35
64 63 58 49 41 51 49 64 63 61 66 67 67 66 64 64 63 60 59 56 52 50 49 51 46 44 43 35 37 43 45 47 48 52 56 56 50 44 41 33 35 33 33 32 31
64 65 64 57 56 54 49 62 60 50 57 60 66 67 66 65 62 64 62 60 57 51 46 47 50 48 45 46 45 47 50 40 50 53 57 55 51 47 44 31 28 29 29 28 29
64 66 67 63 60 57 61 64 56 55 53 59 62 63 64 63 61 59 54 52 52 53 51 51 52 55 51 50 49 50 50 51 57 58 57 53 50 47 44 35 31 29 27 26 27
64 67 66 64 60 62 69 59 58 55 57 59 61 61 60 60 57 57 55 52 52 54 50 51 54 58 55 55 49 52 54 53 52 56 57 53 47 48 46 42 35 33 31 28 26
63 66 66 64 67 70 69 60 57 58 62 60 57 60 60 61 62 58 55 52 51 52 56 52 52 55 55 54 57 59 59 56 56 53 51 53 42 45 44 44 37 36 35 32 30
64 62 64 65 66 67 65 67 63 61 65 64 60 56 55 56 61 60 59 50 49 51 51 53 56 56 60 62 63 60 54 52 47 49 53 53 46 48 40 42 42 38 37 39 42
67 65 65 70 68 61 67 68 67 62 66 72 66 65 62 57 58 59 58 55 48 50 51 55 57 59 56 55 57 55 50 47 49 54 53 51 47 45 40 41 40 40 41 44 47
71 69 66 69 71 70 55 69 71 69 66 62 64 70 66 64 57 54 52 56 56 53 56 59 57 55 54 50 50 55 55 53 54 51 54 44 46 42 41 43 44 45 47 49 49
73 71 71 69 70 74 75 62 73 70 69 60 59 61 61 62 64 56 57 56 55 55 52 54 57 53 53 50 51 53 56 57 58 55 55 51 49 50 45 45 48 49 49 50 53
75 73 72 73 70 73 77 74 62 62 62 62 55 53 55 60 59 58 59 60 62 61 56 55 53 53 53 54 53 57 51 53 58 59 55 55 44 49 50 52 52 51 51 54 56
Wind_Direction
211 208 206 206 205 204 205 206 204 200 199 195 192 192 191 194 199 201 205 205 212 214 216 220 223 226 232 243 259 275 288 295 302 305 310 311 308 299 275 259 264 271 285 287 289
209 208 208 207 205 203 204 205 205 204 203 201 202 201 202 207 204 213 222 221 224 226 228 231 235 239 244 255 266 278 285 295 294 301 304 307 300 290 274 266 272 270 266 274 279
211 209 209 208 206 206 207 208 208 209 208 211 211 213 214 215 217 218 227 231 234 232 237 242 246 250 256 263 270 277 285 287 291 296 301 303 296 283 275 277 281 269 268 264 269
211 211 211 209 209 209 211 212 213 215 215 215 216 220 224 224 222 226 229 234 239 243 244 247 252 256 260 266 272 278 283 283 286 289 295 301 289 281 279 279 278 271 272 269 268
213 213 213 213 213 214 214 216 218 220 219 221 223 225 227 230 230 233 237 241 243 248 251 256 260 263 266 270 273 279 279 283 286 287 289 292 287 282 281 276 275 272 269 269 273
217 217 217 217 218 219 219 220 222 223 224 225 226 229 231 234 236 237 243 246 248 252 255 259 263 265 270 274 277 277 280 281 284 286 287 285 283 281 276 274 271 268 265 264 267
221 220 220 221 222 222 224 225 225 226 228 229 231 233 235 238 240 243 246 249 251 254 259 263 266 268 273 279 279 279 280 282 283 285 284 282 284 272 275 269 269 266 266 267 268
225 224 224 224 225 226 226 227 228 229 230 232 233 237 238 241 243 246 248 251 254 258 261 265 268 270 276 276 278 281 281 281 281 280 282 282 281 275 273 269 263 264 266 266 267
226 228 228 227 228 229 229 230 231 232 234 235 236 239 240 242 247 249 251 253 257 260 263 266 272 274 276 276 279 282 278 277 279 281 280 279 278 275 270 266 261 262 263 265 267
231 229 231 231 231 232 233 233 234 235 236 238 240 242 243 244 248 250 253 255 257 260 264 268 271 274 277 278 278 275 278 280 283 276 274 274 275 272 269 265 262 260 260 264 268
231 233 233 233 234 234 235 237 238 239 239 241 242 244 246 247 248 251 254 256 258 261 264 266 271 278 272 273 276 279 281 279 275 273 272 272 269 271 267 266 268 262 260 265 271
232 233 233 236 236 237 238 239 240 242 241 242 245 245 247 249 249 251 254 256 259 261 264 268 273 272 271 275 278 276 277 277 274 273 270 268 268 265 268 265 265 265 261 265 272
234 232 233 234 236 237 241 242 243 244 245 240 244 247 249 250 251 252 254 256 259 262 267 271 273 271 275 278 277 274 272 271 270 271 272 272 266 266 268 272 269 268 266 267 270
237 236 238 232 233 237 240 244 246 247 249 246 246 249 250 251 252 253 255 258 262 265 267 268 270 275 273 271 269 268 266 268 272 273 276 271 273 267 271 270 273 275 271 268 273
236 233 238 239 238 236 240 243 244 246 248 246 243 245 249 253 255 253 256 257 260 264 265 269 269 268 270 269 265 268 268 269 267 268 271 272 282 283 273 275 280 270 267 269 271
245 235 231 236 239 239 237 242 245 245 242 250 251 249 249 250 252 257 257 258 259 261 261 264 267 266 268 266 266 267 267 267 268 269 269 276 279 283 283 277 280 275 269 270 271
248 247 233 233 232 240 238 239 239 243 247 249 252 254 254 253 252 253 257 259 259 261 264 266 262 265 262 264 263 263 261 264 265 266 273 279 277 285 291 282 282 277 272 272 270
240 246 245 234 231 236 229 233 239 243 247 252 253 254 255 256 257 258 257 259 259 260 261 262 256 259 264 263 262 258 262 260 267 275 277 276 274 283 294 285 286 278 271 266 263
241 240 243 244 236 229 244 239 243 237 243 247 250 255 259 259 262 262 263 263 259 260 258 260 260 259 256 261 258 258 262 272 268 273 278 276 276 279 284 289 283 272 263 261 259
239 239 237 242 247 245 242 240 233 238 245 244 245 251 255 258 263 265 260 259 260 259 258 256 260 263 263 263 263 266 269 269 271 274 277 275 276 278 284 281 276 267 259 259 261
239 237 234 237 239 238 246 243 234 237 240 247 243 246 252 259 262 262 263 259 255 253 253 256 255 260 263 264 269 268 267 271 271 268 269 277 282 280 278 278 273 265 263 270 270
239 237 233 232 234 237 236 242 237 242 244 246 246 249 248 252 257 259 258 257 257 255 256 261 260 261 264 264 266 268 263 267 269 273 275 272 275 280 280 279 279 266 264 270 269
239 238 232 228 230 236 240 247 246 244 242 244 242 246 249 253 255 254 256 252 255 255 254 256 257 262 264 264 264 270 275 276 270 265 268 267 275 278 280 277 277 273 270 270 271
236 235 232 229 224 233 233 237 243 246 253 246 245 244 244 250 252 249 252 256 250 252 254 257 260 259 261 266 268 267 268 264 264 262 264 269 273 273 276 275 271 268 263 266 269
233 234 232 232 229 224 227 234 236 240 245 245 245 244 244 247 249 247 251 256 261 254 254 259 258 260 259 257 262 266 264 262 260 264 261 269 263 265 266 266 270 267 262 265 272
234 234 232 230 231 228 223 233 232 239 242 240 241 239 240 247 251 254 256 254 262 260 257 263 262 262 258 254 261 263 259 261 261 256 259 266 267 268 273 270 266 267 268 271 272
233 233 233 231 230 232 227 227 233 234 238 238 243 246 247 247 252 255 253 254 256 254 253 262 259 260 261 256 262 259 258 263 264 260 264 264 268 269 268 271 271 269 266 267 269
Height
5814 5816 5819 5823 5826 5829 5833 5836 5838 5840 5843 5845 5846 5848 5851 5853 5855 5856 5857 5859 5861 5862 5864 5865 5867 5868 5869 5869 5870 5870 5871 5871 5871 5870 5870 5870 5870 5869 5869 5869 5868 5868 5868 5868 5867
5808 5812 5816 5818 5822 5825 5828 5831 5835 5838 5840 5842 5844 5846 5849 5851 5852 5854 5856 5857 5859 5860 5862 5863 5864 5865 5866 5867 5868 5868 5868 5869 5869 5869 5867 5868 5867 5867 5867 5867 5866 5866 5866 5866 5866
5802 5806 5810 5813 5817 5821 5824 5827 5831 5834 5836 5839 5841 5844 5846 5848 5850 5851 5853 5854 5856 5858 5859 5860 5861 5863 5864 5864 5865 5865 5865 5865 5866 5866 5865 5865 5864 5864 5864 5864 5865 5864 5863 5864 5864
5796 5801 5805 5808 5812 5815 5819 5823 5826 5829 5832 5834 5837 5840 5843 5845 5848 5849 5850 5852 5853 5855 5856 5857 5858 5859 5860 5861 5861 5862 5862 5862 5862 5862 5862 5862 5861 5860 5861 5862 5861 5861 5860 5860 5860
5791 5795 5799 5803 5806 5810 5813 5817 5820 5824 5826 5829 5833 5835 5838 5841 5844 5845 5847 5848 5850 5851 5853 5854 5855 5856 5856 5857 5857 5858 5858 5857 5858 5858 5858 5858 5857 5857 5857 5857 5858 5857 5857 5857 5856
5784 5788 5792 5796 5800 5804 5807 5811 5814 5817 5821 5824 5827 5830 5833 5836 5838 5841 5843 5844 5846 5848 5849 5850 5851 5851 5852 5853 5853 5854 5853 5853 5853 5853 5853 5853 5853 5854 5852 5853 5853 5853 5853 5853 5853
5776 5780 5784 5789 5793 5796 5800 5804 5807 5811 5814 5817 5821 5824 5827 5830 5833 5836 5838 5840 5841 5843 5844 5845 5846 5847 5848 5848 5848 5848 5848 5847 5848 5847 5847 5846 5848 5850 5848 5848 5848 5848 5849 5849 5850
5768 5772 5776 5780 5784 5788 5792 5797 5800 5803 5807 5810 5814 5817 5821 5824 5826 5830 5832 5834 5836 5837 5839 5840 5840 5842 5842 5842 5842 5842 5843 5841 5843 5841 5841 5840 5844 5842 5843 5843 5843 5843 5844 5844 5845
5758 5763 5768 5771 5776 5781 5784 5788 5792 5795 5799 5803 5806 5810 5814 5818 5820 5823 5825 5827 5829 5831 5832 5834 5835 5836 5836 5837 5836 5837 5835 5835 5835 5836 5835 5833 5835 5836 5837 5836 5838 5838 5839 5839 5839
5748 5753 5759 5763 5767 5772 5776 5779 5783 5787 5791 5794 5799 5803 5807 5812 5812 5814 5816 5819 5821 5823 5825 5827 5827 5828 5831 5830 5830 5827 5828 5829 5828 5829 5828 5827 5828 5828 5829 5829 5831 5833 5833 5833 5834
5737 5743 5748 5753 5757 5762 5767 5772 5776 5778 5781 5787 5790 5794 5798 5802 5805 5807 5809 5811 5813 5816 5818 5818 5820 5825 5823 5822 5823 5820 5821 5820 5823 5818 5820 5820 5820 5820 5822 5823 5826 5826 5827 5827 5828
5724 5729 5736 5741 5746 5752 5758 5761 5764 5767 5770 5775 5779 5785 5789 5792 5796 5799 5801 5803 5804 5807 5807 5812 5814 5815 5814 5814 5815 5814 5813 5815 5814 5809 5811 5812 5811 5813 5812 5818 5819 5819 5820 5821 5822
5709 5716 5723 5729 5735 5743 5748 5751 5751 5753 5756 5767 5770 5774 5779 5782 5785 5790 5791 5793 5796 5797 5800 5802 5806 5806 5806 5808 5806 5806 5805 5807 5805 5801 5802 5802 5800 5805 5807 5808 5812 5813 5812 5813 5814
5699 5705 5710 5715 5725 5731 5738 5738 5739 5741 5743 5754 5763 5764 5767 5771 5772 5777 5781 5784 5787 5790 5790 5792 5797 5796 5799 5798 5798 5797 5797 5797 5798 5794 5793 5794 5784 5798 5803 5801 5802 5806 5803 5803 5806
5687 5692 5699 5706 5711 5719 5726 5724 5725 5729 5730 5741 5746 5750 5758 5762 5765 5768 5770 5773 5777 5781 5782 5784 5786 5786 5787 5792 5788 5790 5790 5788 5789 5787 5782 5786 5778 5783 5794 5795 5795 5797 5794 5793 5796
5673 5679 5686 5690 5697 5708 5710 5711 5711 5714 5719 5725 5733 5739 5743 5749 5752 5754 5759 5765 5768 5769 5771 5773 5774 5776 5779 5781 5781 5780 5781 5780 5778 5777 5770 5779 5779 5768 5782 5785 5785 5785 5785 5784 5786
5660 5663 5670 5677 5689 5691 5698 5698 5694 5690 5715 5718 5717 5722 5727 5734 5740 5743 5747 5752 5756 5758 5760 5765 5765 5764 5769 5771 5771 5771 5771 5769 5767 5764 5764 5768 5766 5767 5767 5772 5775 5775 5774 5775 5775
5645 5650 5655 5665 5673 5678 5681 5677 5671 5693 5705 5703 5704 5705 5712 5720 5725 5731 5736 5740 5745 5747 5748 5750 5752 5756 5759 5762 5758 5756 5759 5758 5758 5756 5754 5754 5754 5758 5759 5762 5762 5763 5764 5766 5767
5628 5634 5641 5653 5659 5664 5663 5651 5663 5686 5691 5693 5691 5695 5699 5705 5711 5717 5724 5730 5734 5738 5739 5737 5740 5744 5748 5748 5747 5746 5746 5756 5747 5747 5744 5743 5745 5748 5748 5755 5753 5754 5755 5757 5759
5611 5617 5630 5640 5643 5642 5639 5637 5659 5671 5672 5676 5680 5683 5686 5692 5695 5699 5708 5717 5721 5727 5727 5727 5728 5728 5732 5737 5736 5736 5740 5741 5738 5736 5734 5733 5734 5735 5739 5744 5744 5746 5747 5749 5751
5594 5599 5620 5624 5626 5622 5617 5630 5651 5652 5659 5660 5671 5671 5678 5679 5682 5687 5695 5703 5706 5711 5712 5714 5715 5715 5719 5722 5728 5727 5725 5726 5727 5724 5723 5724 5726 5727 5727 5731 5735 5737 5738 5740 5741
5576 5582 5602 5605 5605 5605 5612 5625 5631 5637 5643 5648 5654 5659 5665 5666 5666 5674 5681 5687 5692 5696 5696 5702 5699 5701 5706 5708 5709 5710 5711 5712 5711 5715 5716 5714 5717 5716 5717 5718 5722 5725 5727 5729 5730
5559 5570 5582 5584 5586 5593 5604 5609 5615 5620 5628 5633 5640 5650 5651 5652 5654 5662 5665 5676 5677 5681 5684 5686 5685 5690 5692 5693 5691 5694 5700 5702 5702 5702 5701 5701 5707 5705 5712 5711 5711 5714 5715 5716 5716
5544 5550 5561 5564 5574 5582 5590 5597 5600 5609 5612 5620 5628 5631 5637 5639 5643 5649 5653 5656 5663 5666 5669 5669 5670 5672 5678 5682 5681 5680 5685 5687 5686 5686 5688 5690 5696 5696 5699 5697 5698 5700 5702 5702 5702
5525 5534 5545 5550 5561 5569 5573 5581 5587 5592 5598 5606 5609 5615 5624 5625 5630 5638 5644 5640 5643 5650 5653 5654 5656 5660 5665 5669 5668 5667 5670 5671 5670 5679 5673 5685 5681 5684 5686 5686 5686 5687 5687 5689 5692
5508 5519 5528 5537 5543 5548 5556 5564 5571 5580 5584 5591 5593 5606 5607 5609 5620 5631 5629 5630 5632 5636 5637 5640 5643 5646 5650 5653 5656 5654 5657 5657 5658 5662 5662 5668 5671 5669 5676 5675 5674 5674 5675 5676 5676
5491 5500 5508 5518 5526 5530 5541 5551 5560 5564 5569 5577 5584 5587 5589 5600 5608 5612 5612 5616 5615 5620 5624 5626 5630 5632 5634 5637 5638 5633 5648 5646 5647 5648 5652 5652 5664 5656 5658 5659 5660 5661 5661 5661 5661